STARLINK-2051 (47661 NORAD) Tracking and Keplerian Element Data

This shows tracking and keplerian element data for the satellite.

Feedback or suggestion? Click here.




ElementValue
Catalog47661
NameSTARLINK-2051
Epoch Orbit282
Epoch Day60.16668981
Epoch Year2021
RAAN36.8483
Inclination53.0499
Eccentricity0.0001454
Argument of Perigee97.5802
Mean Anonmoly15.6046
Mean Motion15.86471695
Decay Rate0.00052903
L11 47661U 21012AT 21060.16668981 .00052903 00000-0 20719-3 0 9995
L22 47661 53.0499 36.8483 0001454 97.5802 15.6046 15.86471695 2829

Live tracking and technical data element details for STARLINK-2051 (NORAD 47661). STARLINK-2051 can be tracked NOW for your location showing map with azimuth and elevation plus other details from your city location.

Track the satellite on the map from your city or location and see movement details for azimuth, elevation, latitude, longitude, range, height, and movement on the map or in text.







IsCatalogInMostPopularTable: catalog: 47661, numindb: 5
Update: records affected: 1



GetName: 47661 STARLINK-2051

Hit Count: updated at: Mon, 01 Mar 2021 15:41:47 GMT